This is the latest recevied weather packets stored in our database for station/object VK6WB. If no packets are shown the sender has not sent any weather packets the latest 10 day(s).
| Time | Temp. | Humidity | Pressure | Rain* | Wind** | Luminosity | Snow |
|---|---|---|---|---|---|---|---|
| 1778163605 | 17.78° C | 47% | 1024.3 hPa | 0 mm | - | 271 W/m² | - |
| 1778163005 | 17.78° C | 46% | 1024.2 hPa | 0 mm | - | 271 W/m² | - |
| 1778162404 | 17.78° C | 46% | 1024.4 hPa | 0 mm | - | 271 W/m² | - |
| 1778161805 | 17.78° C | 46% | 1024.3 hPa | 0 mm | - | 168 W/m² | - |
| 1778161205 | 17.78° C | 45% | 1024.1 hPa | 0 mm | - | 168 W/m² | - |
| 1778160605 | 17.78° C | 45% | 1023.9 hPa | 0 mm | - | 116 W/m² | - |
| 1778160005 | 17.22° C | 46% | 1023.9 hPa | 0 mm | - | 116 W/m² | - |
| 1778159405 | 17.22° C | 46% | 1023.9 hPa | 0 mm | - | 116 W/m² | - |
| 1778158805 | 17.22° C | 46% | 1024 hPa | 0 mm | - | 116 W/m² | - |
| 1778158205 | 17.78° C | 45% | 1023.8 hPa | 0 mm | - | 116 W/m² | - |
| 1778157605 | 17.78° C | 44% | 1023.7 hPa | 0 mm | - | 116 W/m² | - |
| 1778157005 | 17.78° C | 44% | 1023.6 hPa | 0 mm | - | 116 W/m² | - |
| 1778156405 | 18.33° C | 44% | 1023.7 hPa | 0 mm | - | 116 W/m² | - |
| 1778155805 | 18.33° C | 43% | 1023.6 hPa | 0 mm | - | 64 W/m² | - |
| 1778155205 | 18.33° C | 43% | 1023.6 hPa | 0 mm | - | 65 W/m² | - |
| 1778154605 | 18.33° C | 43% | 1023.7 hPa | 0 mm | - | 65 W/m² | - |
| 1778154004 | 18.33° C | 44% | 1023.7 hPa | 0 mm | - | 13 W/m² | - |
| 1778153405 | 18.33° C | 43% | 1023.7 hPa | 0 mm | - | 13 W/m² | - |
| 1778152805 | 18.89° C | 42% | 1023.7 hPa | 0 mm | - | 13 W/m² | - |
| 1778152205 | 18.89° C | 42% | 1023.6 hPa | 0 mm | - | 13 W/m² | - |
| 1778151605 | 18.89° C | 42% | 1023.5 hPa | 0 mm | - | 117 W/m² | - |
| 1778151007 | 18.89° C | 42% | 1023.4 hPa | 0 mm | - | 117 W/m² | - |
| 1778150405 | 19.44° C | 41% | 1023.3 hPa | 0 mm | - | 117 W/m² | - |
| 1778149805 | 19.44° C | 40% | 1023.3 hPa | 0 mm | - | 117 W/m² | - |
| 1778149204 | 20° C | 39% | 1023.3 hPa | 0 mm | - | 117 W/m² | - |
* Rain latest hour (hover to see other rain measurements)
** Current wind speed in m/s (hover to see current wind gust speed)